OpenBCM V1.08-5-g2f4a (Linux)

Packet Radio Mailbox

IZ3LSV

[San Dona' di P. JN]

 Login: GUEST





  
CX2SA  > KEP      19.02.20 01:46l 86 Lines 3614 Bytes #999 (0) @ ARL
BID : ARLK014
Read: GUEST
Subj: ARLK014 Keplerian data
Path: IZ3LSV<IQ2LB<IK1NHL<CX2SA
Sent: 200218/2310Z @:CX2SA.SAL.URY.SOAM #:25240 [Salto] FBB7.00e $:ARLK014
From: CX2SA@CX2SA.SAL.URY.SOAM
To  : KEP@ARL


ZCZC SK14
QST de W1AW
Keplerian Bulletin 14  ARLK014
From ARRL Headquarters
Newington, CT  February 18, 2020
To all radio amateurs

SB KEP ARL ARLK014
ARLK014 Keplerian data

Special thanks to AMSAT-NA (AMSAT.ORG) for the following Keplerian
data.

Decode 2-line elsets with the following key:
1 AAAAAU 00  0  0 BBBBB.BBBBBBBB  .CCCCCCCC  00000-0  00000-0 0  DDDZ
2 AAAAA EEE.EEEE FFF.FFFF GGGGGGG HHH.HHHH III.IIII JJ.JJJJJJJJKKKKKZ
KEY: A-CATALOGNUM B-EPOCHTIME C-DECAY D-ELSETNUM E-INCLINATION F-RAAN
G-ECCENTRICITY H-ARGPERIGEE I-MNANOM J-MNMOTION K-ORBITNUM Z-CHECKSUM

0 AO-07
1 7530U 74089B   20049.54805035 -.00000024 +00000-0 +13229-3 0  9995
2 7530 101.7840 020.0357 0011901 234.6040 234.9309 12.53642198070969
0 FO-29
1 24278U 96046B   20049.37848978 -.00000024  00000-0  14095-4 0  9997
2 24278  98.5673 175.0272 0349712 326.0050  31.9118 13.53095503160890
0 ISS
1 25544U 98067A   20049.76878878  .00000216  00000-0  12053-4 0  9998
2 25544  51.6438 219.3362 0004756 288.2132 199.5612 15.49169288213500
0 SO-50
1 27607U 02058C   20049.34467244 -.00000053 +00000-0 +13266-4 0  9997
2 27607 064.5562 021.5905 0062732 207.2230 152.5581 14.75609727923009
0 CO-55
1 27844U 03031E   20048.91971292 +.00000038 +00000-0 +36759-4 0  9991
2 27844 098.6843 058.4605 0010639 048.9594 311.2502 14.22221281862961
0 RS-22
1 27939U 03042A   20049.53421632  .00000100  00000-0  26548-4 0  9990
2 27939  98.0702 186.0886 0013089  18.7602 341.4081 14.66837597876435
0 RS-30
1 32953U 08025A   20049.47628830  .00000037  00000-0  19437-3 0  9997
2 32953  82.5072 352.5253 0018883 319.2318  40.7349 12.43094366532722
0 KKS-1
1 33499U 09002H   20049.01427331 +.00000069 +00000-0 +18224-4 0  9991
2 33499 098.3304 260.2749 0009827 142.5529 217.6366 14.75504362594827
0 AO-71
1 37854U 11061E   20049.53674997 +.00001253 +00000-0 +70703-4 0  9993
2 37854 101.7123 078.9043 0159185 058.4036 303.2603 15.06992987453410
0 AO-73
1 39444U 13066AE  20049.52641355 +.00000228 +00000-0 +34434-4 0  9990
2 39444 097.5587 056.3963 0056728 304.8253 054.7632 14.82064345335603
0 UKUBE 1
1 40074U 14037F   20049.43455850  .00000238  00000-0  35663-4 0  9999
2 40074  98.4522 230.6317 0005053 132.2280 227.9363 14.84194318303955
0 XW-2A
1 40903U 15049E   20049.59737648 +.00001176 +00000-0 +28946-4 0  9997
2 40903 097.3070 098.3787 0012835 346.0788 167.0798 15.42635505247996
0 XW-2F
1 40910U 15049M   20049.52315603  .00000611  00000-0  33586-4 0  9990
2 40910  97.4679  54.7442 0016099  60.3467  98.0341 15.17708204244140
0 XW-2B
1 40911U 15049N   20049.50858442  .00000285  00000-0  18256-4 0  9996
2 40911  97.4757  53.0290 0015572  70.0789  46.8458 15.16071827243996
0 IO-86
1 40931U 15052B   20047.50314939  .00000440  00000-0 -27845-4 0  9996
2 40931   5.9959 125.0758 0013548 350.9845   9.0050 14.76624032237202
0 CAS-4B
1 42759U 17034B   20049.49016777  .00000074  00000-0  18046-4 0  9992
2 42759  43.0201 326.1318 0012090 349.6208 179.7423 15.09743748147831
0 CAS-4A
1 42761U 17034D   20049.50676047  .00000142  00000-0  22113-4 0  9995
2 42761  43.0201 325.4186 0012445 350.4291 178.4194 15.09822387147833
0 AO-91
1 43017U 17073E   20049.42812051  .00000484  00000-0  42449-4 0  9994
2 43017  97.7266 326.2778 0258862  81.4257 281.6192 14.78797727121425
0 AO-92
1 43137U 18004AC  20049.19777058  .00000806  00000-0  36313-4 0  9994
2 43137  97.4594 121.1133 0010746 114.8232 245.4124 15.23884544116722

Keplerian bulletins are transmitted twice weekly from W1AW.  The
next scheduled transmission of these data will be Friday, February
21, 2020, at 2330z on Baudot and BPSK31.
NNNN


Read previous mail | Read next mail


 14.10.2025 05:02:15lGo back Go up